• In Hungary
  • List of Countries
  • For 7 days
  • Water Temperature
  • Satellite Maps
  • Weather Map
  • News
  • Weather Widgets
  • user-avatar
    Login

    Hourly Weather Bujakow

    Today, 26 September, Wednesday

    Time Temperature Precipitation Wind Pressure Humidity
    00:00 +4°C° 0 mm 1 mps 740 mmHg 81%
    01:00 +4°C° 0 mm 1 mps 740 mmHg 83%
    02:00 +4°C° 0 mm 1 mps 740 mmHg 83%
    03:00 +3°C° 0 mm 1 mps 740 mmHg 84%
    04:00 +3°C° 0 mm 1 mps 740 mmHg 84%
    05:00 +3°C° 0 mm 2 mps 740 mmHg 81%
    06:00 +4°C° 0 mm 2 mps 740 mmHg 78%
    07:00 +4°C° 0 mm 2 mps 741 mmHg 75%
    08:00 +7°C° 0 mm 2 mps 740 mmHg 65%
    09:00 +9°C° 0 mm 2 mps 740 mmHg 56%
    10:00 +12°C° 0 mm 2 mps 740 mmHg 46%
    11:00 +12°C° 0 mm 3 mps 740 mmHg 44%
    12:00 +13°C° 0 mm 3 mps 739 mmHg 41%
    13:00 +14°C° 0 mm 4 mps 739 mmHg 39%
    14:00 +13°C° 0 mm 3 mps 738 mmHg 42%
    15:00 +13°C° 0 mm 3 mps 738 mmHg 45%
    16:00 +12°C° 0 mm 3 mps 737 mmHg 47%
    17:00 +12°C° 0 mm 3 mps 737 mmHg 50%
    18:00 +11°C° 0 mm 3 mps 737 mmHg 53%
    19:00 +10°C° 0 mm 3 mps 737 mmHg 56%
    20:00 +9°C° 0 mm 3 mps 737 mmHg 57%
    21:00 +9°C° 0 mm 3 mps 736 mmHg 57%
    22:00 +7°C° 0 mm 4 mps 736 mmHg 58%
    23:00 +7°C° 0 mm 4 mps 736 mmHg 56%

    Tomorrow, 27 September, Thursday

    Time Temperature Precipitation Wind Pressure Humidity
    00:00 +7°C° 0 mm 4 mps 736 mmHg 55%
    01:00 +7°C° 0 mm 4 mps 736 mmHg 54%
    02:00 +8°C° 0 mm 3 mps 735 mmHg 54%
    03:00 +8°C° 0 mm 3 mps 735 mmHg 54%
    04:00 +8°C° 0 mm 3 mps 735 mmHg 54%
    05:00 +9°C° 0 mm 3 mps 735 mmHg 54%
    06:00 +9°C° 0 mm 3 mps 735 mmHg 54%
    07:00 +10°C° 0 mm 3 mps 735 mmHg 53%
    08:00 +11°C° 0 mm 3 mps 735 mmHg 53%
    09:00 +12°C° 0 mm 3 mps 735 mmHg 53%
    10:00 +13°C° 0 mm 3 mps 735 mmHg 53%
    11:00 +14°C° 0 mm 3 mps 735 mmHg 54%
    12:00 +17°C° 0 mm 3 mps 735 mmHg 55%
    13:00 +18°C° 0 mm 3 mps 734 mmHg 56%
    14:00 +18°C° 0 mm 3 mps 734 mmHg 58%
    15:00 +19°C° 0 mm 3 mps 733 mmHg 61%
    16:00 +19°C° 0 mm 2 mps 733 mmHg 63%
    17:00 +17°C° 0 mm 2 mps 733 mmHg 69%
    18:00 +16°C° 0 mm 2 mps 733 mmHg 74%
    19:00 +14°C° 0 mm 2 mps 732 mmHg 80%
    20:00 +14°C° 0 mm 2 mps 732 mmHg 81%
    21:00 +13°C° 0 mm 2 mps 732 mmHg 82%
    22:00 +13°C° 0 mm 2 mps 731 mmHg 83%
    23:00 +13°C° 0 mm 2 mps 731 mmHg 83%

    Day after tomorrow, 28 September, Friday

    Time Temperature Precipitation Wind Pressure Humidity
    00:00 +13°C° 0 mm 2 mps 730 mmHg 83%
    01:00 +11°C° 0 mm 3 mps 730 mmHg 83%
    02:00 +11°C° 0 mm 3 mps 729 mmHg 83%
    03:00 +11°C° 0 mm 3 mps 729 mmHg 83%
    04:00 +11°C° 0 mm 3 mps 728 mmHg 82%
    05:00 +11°C° 0 mm 3 mps 728 mmHg 80%
    06:00 +12°C° 0 mm 3 mps 728 mmHg 77%
    07:00 +12°C° 0 mm 3 mps 728 mmHg 74%
    08:00 +14°C° 0 mm 3 mps 728 mmHg 65%
    09:00 +17°C° 0 mm 4 mps 728 mmHg 56%
    10:00 +19°C° 0 mm 4 mps 728 mmHg 47%
    11:00 +19°C° 0 mm 4 mps 728 mmHg 46%
    12:00 +20°C° 0 mm 4 mps 728 mmHg 44%
    13:00 +21°C° 0 mm 4 mps 727 mmHg 43%
    14:00 +20°C° 0 mm 4 mps 727 mmHg 46%
    15:00 +19°C° 0 mm 3 mps 727 mmHg 50%
    16:00 +18°C° 0 mm 3 mps 727 mmHg 54%
    17:00 +16°C° 0 mm 3 mps 727 mmHg 63%
    18:00 +13°C° 0 mm 3 mps 727 mmHg 72%
    19:00 +12°C° 0 mm 2 mps 727 mmHg 81%
    20:00 +12°C° 0 mm 2 mps 727 mmHg 81%
    21:00 +12°C° 0 mm 2 mps 728 mmHg 80%
    22:00 +12°C° 0 mm 2 mps 728 mmHg 80%
    23:00 +12°C° 0.1 mm 2 mps 728 mmHg 80%

    29 September, Saturday

    Time Temperature Precipitation Wind Pressure Humidity
    00:00 +10°C° 0.1 mm 2 mps 728 mmHg 80%
    01:00 +10°C° 0.1 mm 2 mps 728 mmHg 79%
    02:00 +10°C° 0.2 mm 2 mps 729 mmHg 80%
    03:00 +9°C° 0.2 mm 2 mps 729 mmHg 81%
    04:00 +9°C° 0.2 mm 2 mps 729 mmHg 82%
    05:00 +8°C° 0.1 mm 2 mps 729 mmHg 82%
    06:00 +8°C° 0.1 mm 2 mps 730 mmHg 83%
    07:00 +8°C° 0.1 mm 3 mps 730 mmHg 83%
    08:00 +9°C° 0.1 mm 3 mps 730 mmHg 76%
    09:00 +10°C° 0.1 mm 4 mps 731 mmHg 69%
    10:00 +11°C° 0.1 mm 4 mps 731 mmHg 62%
    11:00 +10°C° 0.1 mm 5 mps 731 mmHg 58%
    12:00 +12°C° 0.1 mm 5 mps 731 mmHg 53%
    13:00 +12°C° 0.1 mm 5 mps 732 mmHg 48%
    14:00 +12°C° 0 mm 5 mps 732 mmHg 47%
    15:00 +12°C° 0 mm 4 mps 732 mmHg 46%
    16:00 +11°C° 0 mm 4 mps 732 mmHg 45%
    17:00 +10°C° 0 mm 4 mps 732 mmHg 49%
    18:00 +9°C° 0 mm 3 mps 733 mmHg 53%
    19:00 +8°C° 0 mm 2 mps 733 mmHg 57%
    20:00 +7°C° 0 mm 2 mps 733 mmHg 60%
    21:00 +6°C° 0 mm 2 mps 734 mmHg 62%
    22:00 +6°C° 0 mm 2 mps 734 mmHg 65%
    23:00 +5°C° 0 mm 2 mps 734 mmHg 67%

    30 September, Sunday

    Time Temperature Precipitation Wind Pressure Humidity
    00:00 +5°C° 0 mm 2 mps 734 mmHg 68%
    01:00 +5°C° 0 mm 1 mps 734 mmHg 70%
    02:00 +5°C° 0 mm 1 mps 733 mmHg 71%
    03:00 +5°C° 0 mm 1 mps 733 mmHg 73%
    04:00 +4°C° 0 mm 1 mps 733 mmHg 74%
    05:00 +5°C° 0 mm 1 mps 733 mmHg 72%
    06:00 +4°C° 0 mm 2 mps 733 mmHg 70%
    07:00 +5°C° 0 mm 2 mps 733 mmHg 69%
    08:00 +7°C° 0 mm 2 mps 733 mmHg 60%
    09:00 +9°C° 0 mm 3 mps 733 mmHg 52%
    10:00 +11°C° 0 mm 3 mps 733 mmHg 44%
    11:00 +12°C° 0 mm 3 mps 732 mmHg 40%
    12:00 +13°C° 0 mm 3 mps 732 mmHg 37%
    13:00 +15°C° 0 mm 2 mps 731 mmHg 34%
    14:00 +15°C° 0 mm 2 mps 731 mmHg 37%
    15:00 +15°C° 0 mm 2 mps 730 mmHg 40%
    16:00 +14°C° 0 mm 2 mps 730 mmHg 42%
    17:00 +12°C° 0 mm 2 mps 729 mmHg 48%
    18:00 +9°C° 0 mm 2 mps 729 mmHg 54%
    19:00 +7°C° 0 mm 2 mps 729 mmHg 60%
    20:00 +7°C° 0 mm 2 mps 728 mmHg 62%
    21:00 +7°C° 0 mm 2 mps 728 mmHg 64%
    22:00 +6°C° 0 mm 2 mps 728 mmHg 66%
    23:00 +6°C° 0 mm 2 mps 727 mmHg 67%

    1 October, Monday

    Time Temperature Precipitation Wind Pressure Humidity
    00:00 +6°C° 0 mm 2 mps 727 mmHg 67%
    01:00 +6°C° 0 mm 2 mps 726 mmHg 68%
    02:00 +6°C° 0 mm 2 mps 726 mmHg 69%
    03:00 +6°C° 0 mm 2 mps 725 mmHg 70%
    04:00 +6°C° 0 mm 2 mps 725 mmHg 71%
    05:00 +7°C° 0 mm 2 mps 725 mmHg 71%
    06:00 +8°C° 0 mm 2 mps 724 mmHg 71%
    07:00 +9°C° 0 mm 2 mps 724 mmHg 71%
    08:00 +12°C° 0 mm 2 mps 724 mmHg 66%
    09:00 +13°C° 0 mm 3 mps 724 mmHg 60%
    10:00 +16°C° 0 mm 3 mps 724 mmHg 55%
    11:00 +17°C° 0 mm 3 mps 723 mmHg 53%
    12:00 +18°C° 0 mm 3 mps 723 mmHg 51%
    13:00 +19°C° 0 mm 3 mps 722 mmHg 49%
    14:00 +18°C° 0 mm 3 mps 722 mmHg 52%
    15:00 +18°C° 0 mm 2 mps 722 mmHg 55%
    16:00 +17°C° 0 mm 2 mps 722 mmHg 58%
    17:00 +16°C° 0 mm 2 mps 722 mmHg 63%
    18:00 +15°C° 0 mm 2 mps 722 mmHg 67%
    19:00 +13°C° 0 mm 2 mps 722 mmHg 72%
    20:00 +13°C° 0 mm 2 mps 722 mmHg 73%
    21:00 +13°C° 0 mm 2 mps 722 mmHg 74%
    22:00 +12°C° 0 mm 2 mps 722 mmHg 76%
    23:00 +12°C° 0 mm 1 mps 722 mmHg 76%
    Show more